Printer-friendly version

IAU Minor Planet Center

Minor Planet Center

MPEC 2005-C24 : 2005 CL7

The following Minor Planet Electronic Circular may be linked-to from your own Web pages, but must not otherwise be redistributed electronically.


Read MPEC 2005-C23 Read MPEC 2005-C25


M.P.E.C. 2005-C24                                Issued 2005 Feb. 5, 12:55 UT

     The Minor Planet Electronic Circulars contain information on unusual
         minor planets and routine data on comets.  They are published
   on behalf of Commission 20 of the International Astronomical Union by the
          Minor Planet Center, Smithsonian Astrophysical Observatory,
                          Cambridge, MA 02138, U.S.A.

                  Supported in part by the Brinson Foundation
             Prepared using the Tamkin Foundation Computer Network

                              MPC@CFA.HARVARD.EDU
          URL http://cfa-www.harvard.edu/iau/mpc.html  ISSN 1523-6714

                                   2005 CL7

Observations:
     K05C07L* C2005 02 03.37601 11 15 45.80 +14 37 54.0          17.7   EC024704
     K05C07L  C2005 02 03.38892 11 15 45.82 +14 40 04.9          17.6   EC024704
     K05C07L  C2005 02 03.40238 11 15 45.73 +14 42 20.9          17.6   EC024704
     K05C07L  C2005 02 03.42829 11 15 45.54 +14 46 42.1          17.7   EC024704
     K05C07L  C2005 02 05.02637 11 15 57.87 +19 18 44.8          17.2 V EC024198
     K05C07L  C2005 02 05.03229 11 15 57.81 +19 19 46.0          17.3 V EC024198
     K05C07L  C2005 02 05.03466 11 15 57.79 +19 20 10.6          17.3 V EC024198
     K05C07L  C2005 02 05.03572 11 15 57.78 +19 20 21.6          17.2 V EC024198
     K05C07L  C2005 02 05.03821 11 15 57.76 +19 20 47.3          17.4 V EC024198
     K05C07L 2C2005 02 05.13811 11 15 56.87 +19 37 56.8          17.1 R EC024012
     K05C07L 2C2005 02 05.14020 11 15 56.87 +19 38 17.8          17.0 R EC024012
     K05C07L 2C2005 02 05.14228 11 15 56.85 +19 38 39.4          17.1 R EC024012
     K05C07L 2C2005 02 05.14438 11 15 56.82 +19 39 00.9          17.1 R EC024012
     K05C07L 2C2005 02 05.14647 11 15 56.82 +19 39 22.6          17.1 R EC024012
     K05C07L 5C2005 02 05.35816 11 15 59.35 +20 16 02.8          16.8 R EC024673
     K05C07L 5C2005 02 05.35990 11 15 59.33 +20 16 21.3                 EC024673
     K05C07L 5C2005 02 05.36128 11 15 59.30 +20 16 35.7                 EC024673
     K05C07L 5C2005 02 05.36314 11 15 59.26 +20 16 55.3                 EC024673
     K05C07L  C2005 02 05.41163 11 15 57.45 +20 25 12.2          17.4 R EC024734
     K05C07L  C2005 02 05.41369 11 15 57.40 +20 25 33.5          17.2 R EC024734
     K05C07L  C2005 02 05.41575 11 15 57.41 +20 25 54.9          17.2 R EC024734

Observer details:
012 Uccle.  Observer T. Pauwels.  0.85-m f/2.5 Schmidt + 3Kx2K CCD.
198 Wildberg.  Observer R. Apitzsch.  0.35-m f/4.2 reflector + CCD.
673 Table Mountain Observatory, Wrightwood.  Observer J. Young.  0.6-m
    reflector + CCD.
704 Lincoln Laboratory ETS, New Mexico.  Observers M. Blythe, F. Shelly,
    M. Bezpalko, R. Huber, L. Manguso, D. Torres, R. Krack.  Measurers
    J. Stuart, R. Sayer, J. Evans, J. Kommers.  1.0-m f/2.15 reflector + CCD.
734 Farpoint Observatory.  Observers D. Tibbets, K. Dobbs, W. Leifer,
    J. Burgardt.  Measurer G. Hug.  0.36-m f/6 Schmidt-Cassegrain + CCD.

Orbital elements:
2005 CL7
Epoch 2005 Jan. 30.0 TT = JDT 2453400.5                 MPC
M 153.82356              (2000.0)            P               Q
n   0.92416656     Peri.  200.96257     +0.88950261     +0.29179650
a   1.0438447      Node   136.57192     -0.31134822     +0.95029538
e   0.1028519      Incl.   30.76353     -0.33443594     -0.10859787
P   1.07           H   19.7           G   0.15
From 21 observations 2005 Feb. 3-5.

Ephemeris:
2005 CL7                 a,e,i = 1.04, 0.10, 31                  q = 0.9365
Date    TT    R. A. (2000) Decl.     Delta      r     Elong.  Phase     V
2005 01 30    11 14.38   +03 03.1    0.192    1.142   141.8    32.3    17.8
2005 02 09    11 15.59   +30 41.9    0.180    1.147   151.1    24.5    17.4
2005 02 19    11 08.69   +54 33.6    0.214    1.150   135.2    37.2    18.2
2005 03 01    10 52.22   +68 15.5    0.275    1.151   119.4    48.6    19.0
2005 03 11    10 28.57   +75 00.0    0.345    1.150   108.3    55.1    19.7
2005 03 21    10 07.52   +77 59.4    0.415    1.146   100.4    58.8    20.2
2005 03 31    09 59.16   +79 03.4    0.478    1.140    94.4    60.9    20.6
2005 04 10    10 05.71   +79 04.7    0.533    1.132    89.6    62.3    20.8
2005 04 20    10 23.94   +78 26.2    0.577    1.121    85.8    63.3    21.0
2005 04 30    10 48.48   +77 17.7    0.609    1.109    82.7    64.2    21.1
2005 05 10    11 15.24   +75 41.4    0.628    1.096    80.3    65.3    21.2
2005 05 20    11 42.01   +73 37.8    0.632    1.081    78.5    66.6    21.2
2005 05 30    12 07.38   +71 06.4    0.623    1.064    77.1    68.2    21.2

Timothy B. Spahr             (C) Copyright 2005 MPC           M.P.E.C. 2005-C24

Read MPEC 2005-C23 Read MPEC 2005-C25


Our Web policy. Index to the CBAT/MPC/ICQ pages.


Valid HTML 4.01!